Tracking 19644 objects as of 26-Apr-2019
HD Live streaming from Space Station
objects crossing your sky now

THORAD AGENA D DEB

Track THORAD AGENA D DEB now!
10-day predictions


NORAD ID: 4871
Int'l Code: 1970-025FB
Perigee: 608.9 km
Apogee: 629.8 km
Inclination: 99.7 °
Period: 96.9 minutes
Semi major axis: 6990 km
RCS: 0.0523 m2 (small)
Launch date: April 8, 1970
Source: United States (US)
Launch site: AIR FORCE WESTERN TEST RANGE (AFWTR)

Note: This is SATELLITE DEBRIS
aabbcc
Your satellite tracking list
Your tracking list is empty




NASA's NSSDC Master Catalog

Two Line Element Set (TLE):
1  4871U 70025FB  19115.58497527 +.00002436 +00000-0 +29096-3 0  9992
2  4871 099.7145 355.5471 0014981 283.4919 076.4621 14.85445770314623
Source of the keplerian elements: AFSPC